Starlink 32756

operational
NORAD ID: 62752 Int'l Des: 2025-014 Owner: SPXS Country: US Constellation: starlink
LEOCIRCULAR

Über Starlink 32756

Beschreibung wird geladen...

Live-Position

3D-Globus wird geladen...

Nächste Überflüge

Höhenverlauf

Altitude vs Time

uPlot chart will show altitude changes over time

Zweizeiliger Elementsatz

1 62752U 25014T 25304.62272025 .00031592 00000-0 11518-2 0 9992
2 62752 42.9991 163.6831 0001314 271.6768 88.3933 15.27604257 43518
Epoch: 31. Okt. 2025 • Age: 26 hours

Aktueller Status

Höhe 485.8 km
Geschwindigkeit 7.62 km/s
Subsatellitenpunkt -16.09°S, 60.13°E
Startdatum 21. Jan. 2025
Alter 0.7 years
Typ internet

Technische Details

Klassifizierung Payload
Masse 730.00 kg
Trockenmasse 700.00 kg
Gesamtmasse 730.00 kg
Länge 0.30 m
Durchmesser 4.10 m
Spannweite 29.00 m
Form Box + pan
Hersteller SPXS
Bus-Typ Starlink V2M
Phasenstatus In Orbit
Besitzer/Staat SPXS/US

Große Konstellationen

Loading constellations...